Temp
-12 -12 -12 -12 -12 -12 -12 -12 -12 -12 -12 -12 -12 -12 -12 -12 -11 -11 -11 -11 -11 -11 -11 -12 -12 -12 -12 -12 -12 -12 -13 -13 -13 -14 -14 -14 -14 -14 -14 -14 -14 -14
-12 -12 -12 -12 -12 -12 -12 -12 -12 -12 -12 -12 -12 -12 -12 -12 -11 -11 -11 -11 -11 -12 -12 -12 -12 -12 -12 -12 -12 -13 -13 -13 -13 -14 -14 -14 -14 -14 -14 -14 -14 -14
-12 -12 -12 -12 -12 -12 -12 -12 -12 -12 -12 -12 -12 -12 -12 -12 -11 -11 -12 -12 -11 -12 -12 -12 -12 -12 -12 -12 -13 -13 -13 -13 -13 -14 -14 -14 -14 -14 -14 -14 -14 -14
-13 -13 -13 -12 -12 -12 -13 -13 -12 -12 -12 -12 -12 -12 -12 -12 -12 -12 -12 -12 -11 -11 -12 -12 -12 -12 -12 -13 -13 -13 -13 -13 -14 -14 -14 -14 -14 -14 -14 -14 -14 -15
-13 -13 -13 -12 -12 -13 -13 -13 -13 -13 -13 -12 -12 -12 -12 -12 -12 -12 -12 -12 -12 -11 -12 -12 -12 -12 -13 -13 -13 -13 -13 -13 -14 -14 -14 -14 -14 -14 -14 -14 -15 -15
-13 -13 -13 -13 -13 -13 -13 -13 -13 -13 -13 -12 -12 -12 -12 -12 -12 -12 -12 -12 -12 -12 -12 -12 -12 -12 -13 -13 -13 -13 -13 -14 -13 -14 -14 -14 -14 -14 -14 -15 -15 -15
-13 -13 -13 -13 -13 -13 -13 -13 -13 -13 -12 -12 -12 -12 -12 -12 -12 -12 -12 -12 -12 -12 -12 -12 -12 -13 -13 -13 -13 -13 -14 -14 -14 -14 -14 -14 -14 -14 -15 -15 -15 -15
-13 -13 -13 -13 -13 -13 -13 -13 -13 -13 -12 -12 -12 -12 -12 -12 -12 -12 -12 -12 -12 -12 -12 -13 -13 -13 -13 -13 -13 -13 -13 -13 -14 -14 -14 -14 -15 -15 -15 -15 -15 -15
-13 -13 -13 -13 -13 -13 -13 -13 -13 -13 -13 -12 -12 -12 -12 -12 -12 -12 -12 -12 -12 -12 -13 -13 -13 -13 -13 -13 -13 -13 -13 -14 -14 -14 -15 -15 -15 -15 -15 -15 -15 -15
-13 -13 -13 -13 -13 -13 -13 -13 -13 -13 -12 -12 -12 -12 -12 -12 -12 -12 -13 -13 -12 -12 -13 -13 -13 -13 -13 -13 -13 -13 -14 -14 -14 -15 -15 -15 -15 -15 -15 -15 -15 -15
-13 -13 -13 -13 -13 -13 -13 -13 -13 -13 -12 -12 -12 -12 -12 -12 -12 -13 -13 -13 -13 -13 -13 -13 -13 -13 -13 -13 -13 -14 -14 -14 -15 -15 -15 -15 -15 -15 -15 -15 -15 -15
-13 -13 -13 -13 -13 -13 -13 -13 -13 -13 -12 -12 -12 -12 -12 -12 -13 -13 -13 -13 -13 -13 -13 -13 -13 -13 -13 -14 -14 -14 -14 -15 -15 -15 -15 -15 -15 -15 -15 -15 -15 -16
-13 -13 -13 -13 -13 -13 -13 -13 -13 -13 -12 -12 -12 -12 -12 -12 -13 -13 -13 -13 -13 -13 -13 -13 -13 -13 -14 -14 -14 -14 -14 -15 -15 -15 -15 -15 -15 -15 -15 -15 -16 -16
-13 -13 -13 -13 -13 -13 -13 -13 -13 -13 -12 -12 -12 -12 -12 -12 -13 -13 -13 -13 -13 -13 -13 -13 -13 -14 -14 -14 -14 -14 -14 -15 -15 -15 -15 -15 -15 -15 -15 -16 -16 -16
-13 -13 -13 -13 -13 -13 -13 -13 -13 -13 -12 -12 -12 -12 -12 -12 -12 -13 -13 -13 -13 -13 -13 -13 -14 -14 -14 -14 -14 -14 -14 -15 -15 -15 -15 -15 -15 -15 -15 -16 -16 -16
-13 -13 -13 -13 -13 -13 -13 -13 -13 -13 -12 -12 -12 -12 -12 -12 -12 -13 -13 -13 -13 -13 -13 -13 -14 -14 -14 -14 -14 -14 -14 -14 -14 -15 -15 -15 -15 -15 -15 -15 -15 -15
-13 -13 -13 -13 -13 -13 -13 -13 -13 -13 -13 -13 -13 -12 -12 -12 -13 -13 -13 -13 -13 -13 -13 -13 -14 -14 -14 -14 -14 -14 -14 -14 -14 -15 -15 -15 -15 -15 -15 -15 -15 -15
-13 -13 -13 -13 -13 -13 -13 -13 -13 -13 -13 -13 -13 -13 -13 -13 -13 -13 -13 -13 -13 -13 -14 -14 -14 -14 -14 -14 -14 -14 -14 -15 -15 -15 -15 -15 -15 -15 -15 -15 -15 -15
-13 -13 -13 -13 -13 -13 -13 -13 -13 -13 -13 -13 -13 -13 -13 -13 -13 -13 -13 -13 -13 -13 -14 -14 -14 -14 -14 -14 -14 -14 -14 -15 -15 -15 -15 -15 -15 -15 -15 -15 -15 -15
-13 -13 -13 -13 -13 -13 -13 -13 -13 -13 -13 -13 -13 -13 -13 -13 -13 -13 -13 -13 -13 -13 -13 -14 -14 -14 -14 -14 -14 -14 -14 -14 -15 -15 -15 -15 -15 -15 -15 -15 -15 -15
-13 -13 -13 -13 -13 -13 -13 -13 -13 -13 -13 -13 -13 -13 -13 -13 -13 -13 -13 -13 -13 -13 -13 -14 -14 -14 -14 -14 -14 -14 -14 -15 -15 -15 -15 -15 -15 -15 -15 -15 -15 -15
-13 -13 -13 -13 -13 -13 -13 -13 -13 -13 -13 -13 -13 -13 -13 -13 -13 -13 -13 -13 -13 -13 -13 -14 -14 -14 -14 -14 -15 -15 -15 -15 -15 -15 -15 -15 -15 -15 -15 -15 -15 -15
-14 -13 -13 -13 -13 -13 -13 -13 -13 -13 -13 -13 -13 -13 -13 -13 -13 -13 -13 -13 -13 -13 -14 -14 -14 -14 -14 -14 -15 -15 -15 -15 -15 -15 -15 -15 -15 -15 -15 -15 -15 -16
-14 -14 -13 -13 -13 -13 -13 -13 -13 -13 -13 -13 -13 -13 -14 -14 -14 -14 -14 -14 -14 -14 -14 -14 -14 -14 -14 -15 -15 -15 -15 -15 -15 -15 -15 -15 -15 -15 -15 -15 -16 -16
-14 -14 -14 -14 -14 -14 -14 -13 -13 -13 -13 -13 -14 -14 -14 -14 -14 -14 -14 -14 -14 -14 -14 -14 -14 -14 -14 -15 -15 -15 -15 -15 -15 -15 -15 -15 -15 -15 -16 -16 -16 -16
-14 -14 -14 -14 -14 -14 -14 -14 -14 -14 -14 -14 -14 -14 -14 -14 -14 -14 -14 -14 -14 -14 -14 -14 -14 -14 -15 -15 -15 -15 -15 -15 -15 -15 -15 -15 -15 -16 -16 -16 -16 -16
Height
5810 5810 5810 5811 5812 5812 5812 5811 5811 5811 5810 5810 5808 5807 5806 5805 5804 5802 5801 5800 5798 5797 5797 5796 5795 5795 5796 5797 5797 5798 5799 5800 5801 5802 5803 5804 5805 5805 5805 5805 5805 5805
5808 5808 5808 5808 5809 5810 5809 5809 5809 5808 5808 5807 5805 5804 5803 5802 5801 5800 5797 5796 5795 5793 5792 5792 5792 5792 5793 5795 5796 5796 5797 5798 5799 5800 5801 5802 5802 5803 5803 5803 5803 5803
5806 5805 5806 5806 5807 5807 5807 5806 5806 5806 5805 5804 5803 5802 5801 5799 5798 5797 5795 5794 5792 5790 5789 5789 5789 5789 5791 5793 5795 5795 5795 5796 5797 5798 5799 5799 5800 5801 5801 5801 5801 5801
5803 5803 5804 5804 5805 5804 5804 5804 5804 5803 5802 5801 5800 5799 5798 5796 5795 5794 5793 5791 5789 5787 5786 5786 5786 5787 5789 5791 5793 5793 5794 5795 5795 5796 5796 5797 5798 5798 5799 5799 5799 5799
5800 5801 5802 5803 5802 5802 5801 5801 5801 5801 5800 5799 5798 5797 5796 5794 5793 5792 5790 5788 5787 5785 5784 5785 5785 5786 5787 5789 5790 5791 5792 5793 5793 5794 5794 5795 5796 5796 5796 5796 5797 5797
5798 5799 5800 5800 5800 5799 5799 5799 5799 5798 5798 5797 5796 5796 5794 5792 5791 5790 5788 5786 5785 5783 5783 5783 5785 5786 5786 5787 5788 5789 5790 5790 5791 5791 5792 5793 5794 5794 5794 5794 5795 5795
5796 5797 5798 5797 5797 5797 5797 5797 5796 5796 5796 5795 5794 5793 5792 5790 5789 5788 5786 5785 5784 5783 5782 5783 5784 5784 5785 5785 5786 5787 5788 5788 5789 5789 5790 5791 5791 5792 5792 5792 5793 5793
5794 5795 5795 5795 5795 5794 5794 5794 5794 5794 5793 5792 5791 5790 5789 5787 5786 5785 5784 5784 5784 5783 5782 5782 5783 5783 5784 5784 5785 5785 5786 5786 5787 5787 5788 5789 5790 5790 5790 5791 5791 5791
5792 5792 5792 5792 5792 5792 5792 5792 5792 5791 5790 5790 5789 5787 5786 5785 5783 5783 5782 5782 5782 5782 5782 5782 5782 5782 5782 5783 5783 5784 5784 5784 5785 5786 5787 5787 5788 5788 5789 5789 5789 5789
5789 5790 5790 5790 5790 5790 5790 5790 5790 5789 5788 5788 5786 5785 5784 5782 5781 5781 5781 5780 5780 5780 5780 5781 5782 5781 5780 5781 5782 5782 5782 5783 5783 5785 5785 5786 5786 5786 5787 5787 5787 5787
5787 5787 5787 5788 5788 5788 5788 5788 5788 5787 5786 5786 5784 5783 5782 5780 5779 5779 5779 5779 5779 5779 5779 5779 5780 5780 5779 5780 5780 5781 5781 5782 5782 5783 5784 5784 5785 5785 5785 5785 5785 5784
5784 5785 5785 5786 5786 5785 5786 5786 5785 5785 5784 5784 5782 5781 5780 5778 5778 5777 5777 5777 5777 5777 5777 5777 5777 5778 5778 5779 5779 5779 5780 5781 5781 5782 5782 5783 5783 5784 5783 5783 5782 5782
5782 5782 5783 5783 5783 5783 5784 5784 5783 5783 5783 5782 5781 5780 5778 5777 5776 5776 5776 5775 5775 5776 5776 5776 5776 5777 5777 5777 5778 5778 5779 5779 5780 5780 5780 5781 5781 5781 5781 5780 5779 5779
5780 5780 5781 5781 5781 5781 5781 5782 5781 5781 5781 5780 5779 5778 5777 5776 5775 5775 5774 5774 5774 5774 5775 5775 5775 5776 5776 5777 5777 5777 5778 5778 5778 5778 5778 5779 5779 5778 5778 5777 5777 5776
5777 5778 5778 5778 5779 5779 5779 5780 5780 5779 5779 5779 5778 5777 5776 5775 5774 5774 5773 5773 5773 5773 5774 5774 5774 5775 5775 5776 5776 5776 5776 5776 5776 5776 5776 5776 5776 5775 5775 5774 5774 5773
5775 5775 5776 5776 5776 5777 5777 5778 5778 5777 5777 5777 5777 5776 5775 5774 5773 5773 5772 5772 5772 5773 5773 5773 5773 5773 5774 5775 5775 5775 5774 5774 5774 5774 5774 5774 5773 5773 5772 5772 5771 5770
5773 5773 5774 5774 5774 5775 5775 5776 5776 5776 5776 5776 5776 5775 5774 5773 5773 5772 5772 5772 5772 5772 5771 5771 5772 5772 5772 5773 5773 5773 5772 5772 5772 5772 5772 5772 5771 5770 5770 5769 5768 5768
5770 5771 5771 5772 5772 5773 5773 5774 5774 5774 5774 5774 5774 5774 5773 5772 5772 5771 5771 5771 5771 5771 5771 5770 5770 5771 5771 5771 5771 5771 5770 5770 5770 5770 5770 5769 5768 5768 5767 5767 5766 5766
5768 5768 5769 5770 5770 5771 5771 5772 5772 5772 5772 5773 5773 5772 5772 5771 5771 5770 5770 5770 5770 5770 5769 5769 5769 5769 5769 5770 5769 5769 5768 5768 5768 5768 5767 5766 5766 5765 5765 5764 5764 5763
5766 5766 5767 5767 5768 5768 5769 5770 5770 5770 5770 5771 5771 5771 5770 5770 5769 5769 5769 5769 5769 5768 5768 5768 5768 5768 5768 5768 5767 5767 5766 5765 5765 5765 5765 5764 5763 5763 5762 5762 5761 5760
5763 5764 5765 5765 5766 5766 5767 5767 5768 5768 5768 5769 5769 5769 5769 5768 5768 5767 5767 5767 5767 5766 5766 5766 5766 5766 5766 5766 5765 5764 5764 5763 5763 5763 5762 5761 5761 5760 5760 5759 5758 5757
5761 5762 5762 5763 5763 5764 5765 5765 5766 5766 5767 5767 5767 5767 5766 5766 5766 5765 5765 5764 5764 5764 5764 5764 5764 5764 5764 5763 5762 5762 5761 5761 5761 5761 5760 5758 5758 5758 5757 5756 5755 5755
5759 5759 5760 5761 5761 5762 5763 5763 5764 5764 5765 5765 5765 5765 5764 5764 5763 5763 5762 5762 5762 5762 5762 5762 5761 5761 5761 5761 5760 5759 5759 5758 5758 5758 5757 5756 5756 5755 5754 5753 5752 5752
5756 5757 5758 5759 5759 5760 5761 5761 5762 5762 5763 5763 5763 5762 5762 5761 5760 5760 5759 5759 5759 5759 5760 5759 5759 5759 5758 5758 5758 5757 5756 5756 5755 5755 5754 5753 5753 5752 5751 5750 5749 5749
5754 5755 5756 5757 5757 5758 5758 5759 5760 5760 5760 5760 5760 5760 5759 5758 5757 5757 5756 5756 5756 5757 5757 5757 5756 5756 5756 5756 5755 5754 5753 5753 5753 5752 5751 5750 5749 5749 5748 5747 5746 5745
5752 5753 5754 5755 5755 5756 5756 5757 5757 5757 5757 5757 5757 5757 5756 5755 5754 5754 5754 5753 5753 5754 5754 5754 5753 5753 5753 5753 5752 5751 5751 5750 5749 5749 5748 5746 5746 5745 5744 5743 5743 5742
Wind_Speed
21 23 25 25 24 22 22 23 23 23 23 23 22 22 22 22 22 22 22 20 20 21 21 21 20 18 18 21 21 19 17 16 16 16 15 14 13 11 10 10 11 11
22 24 25 25 23 22 22 23 23 23 23 22 22 22 21 21 21 20 20 19 20 21 20 18 17 17 19 20 19 16 16 16 16 16 15 14 12 11 11 11 11 11
23 24 25 24 23 22 22 23 23 22 22 22 22 21 20 20 19 17 18 20 20 20 18 15 15 17 17 17 17 16 15 14 15 15 15 14 13 12 12 12 11 11
24 25 25 24 22 22 23 22 22 21 21 21 20 19 18 18 17 16 18 19 18 17 17 16 15 16 17 17 17 17 14 13 14 15 15 14 13 13 12 12 12 11
24 25 24 23 22 22 22 21 20 19 19 18 17 16 17 17 16 15 18 18 16 16 16 15 14 15 16 19 19 16 14 14 15 16 16 14 13 13 12 12 11 11
25 24 23 22 22 21 21 20 18 18 17 17 17 16 16 17 16 16 17 16 14 15 13 11 13 15 17 19 19 16 14 15 17 18 16 14 13 13 13 12 12 12
24 23 22 22 21 20 19 18 17 17 18 18 18 17 16 16 15 15 14 11 12 15 12 11 13 16 17 18 19 16 14 15 18 18 15 14 14 13 13 13 13 13
22 22 21 21 20 19 18 17 17 17 18 18 17 16 15 14 14 14 11 8 11 13 12 11 11 13 15 17 16 14 15 18 18 16 14 14 14 13 13 13 14 14
21 21 20 19 18 17 16 15 15 15 16 15 14 13 13 13 13 11 10 9 9 10 10 9 8 10 13 14 14 15 19 20 16 14 14 13 13 13 14 14 14 14
20 20 19 18 17 16 15 14 13 14 14 12 11 12 12 12 11 9 9 9 9 9 9 8 9 11 13 14 17 19 19 16 13 13 13 12 13 14 15 15 15 15
19 19 18 17 16 15 14 13 12 12 12 10 10 12 13 12 11 9 9 10 9 9 9 8 11 14 15 17 19 18 14 13 12 12 12 13 14 15 15 15 15 16
18 18 18 16 15 15 13 12 12 11 10 10 11 13 14 12 10 9 10 10 9 9 9 10 13 16 17 17 17 14 12 12 12 12 13 14 14 15 15 16 17 18
18 18 17 15 15 14 12 11 11 10 9 9 10 11 11 9 7 8 9 9 8 8 10 12 14 15 14 14 14 13 12 12 12 13 14 14 15 15 16 17 18 20
19 18 16 15 15 13 11 10 10 9 7 8 9 9 8 6 5 6 6 5 5 6 8 10 12 12 11 11 12 11 11 12 13 14 15 15 15 16 17 18 20 21
19 17 16 15 14 13 11 10 9 7 6 7 7 7 6 4 3 3 3 2 2 4 6 7 9 10 10 10 11 11 11 13 14 15 15 15 16 17 18 19 20 21
18 16 15 15 14 13 11 10 9 7 6 6 6 6 5 4 3 3 2 1 2 4 5 6 7 8 8 9 10 11 12 13 14 15 15 15 16 18 19 20 21 22
18 16 15 15 14 13 12 10 9 7 6 5 5 5 5 4 3 2 2 2 3 4 5 5 6 7 8 9 10 11 12 14 15 15 16 17 18 19 20 21 22 22
17 16 15 15 15 14 12 11 9 8 7 5 5 5 5 5 4 3 3 3 4 5 5 6 7 8 9 10 11 12 14 15 16 16 17 18 20 20 20 21 22 21
17 16 15 15 15 14 13 12 10 9 8 6 6 6 6 6 6 6 5 5 5 6 7 7 8 9 11 12 13 14 15 16 17 17 18 19 20 20 21 21 22 21
17 16 15 16 15 15 14 12 10 10 9 8 7 7 8 8 9 8 8 7 7 8 8 9 9 10 12 13 14 15 17 17 18 18 19 20 20 21 21 21 23 23
16 16 16 16 16 15 14 12 11 10 10 9 9 9 9 10 11 11 11 11 10 10 10 11 12 13 14 15 16 17 17 18 19 19 20 21 22 22 21 22 24 25
17 17 17 17 16 15 14 12 11 11 10 10 10 11 11 12 13 14 15 15 14 12 12 13 14 15 16 17 18 18 18 19 20 20 20 23 23 23 23 24 25 26
18 18 17 17 16 15 14 13 13 12 11 11 12 13 14 16 17 18 19 18 17 15 14 15 16 17 18 19 20 20 19 20 20 21 22 24 24 24 25 26 26 26
18 17 17 17 17 16 15 15 14 13 13 13 14 16 18 20 21 21 21 20 19 18 16 16 18 19 20 20 21 21 21 21 21 22 24 25 24 25 26 27 26 26
17 17 17 17 16 16 16 15 14 14 13 14 16 18 21 22 23 23 23 22 22 20 19 19 20 21 20 21 21 21 22 22 22 23 25 25 25 27 28 27 27 26
17 17 17 17 16 16 16 16 15 15 15 16 17 19 21 22 22 23 24 24 23 22 21 21 22 21 21 21 22 22 23 24 24 24 25 26 27 27 28 28 27 27
Wind_Direction
256 260 264 269 275 282 288 293 296 299 302 303 300 296 296 296 298 299 296 292 288 285 284 278 269 265 266 257 242 231 227 224 220 220 226 233 240 246 249 247 248 254
255 260 264 270 276 283 289 293 296 300 301 299 295 294 297 298 302 304 297 290 288 284 276 269 263 258 254 244 231 226 224 219 218 220 225 233 240 245 246 244 248 254
255 260 265 271 279 286 290 293 297 299 298 295 294 295 297 299 303 307 302 294 290 281 266 257 255 245 236 227 221 224 224 218 220 223 225 232 239 242 243 244 249 254
256 260 267 274 281 286 289 293 296 296 294 295 296 296 297 301 304 308 307 297 285 275 262 250 235 219 212 212 218 226 227 226 229 228 227 233 239 240 241 246 250 254
256 262 269 276 281 285 288 292 293 291 292 295 297 297 297 301 305 305 307 300 280 270 267 248 217 205 211 215 220 228 230 237 240 233 230 235 238 239 243 247 251 256
258 264 271 276 279 283 287 289 288 285 289 293 295 296 296 299 301 299 305 306 282 262 257 234 208 211 221 221 225 233 238 244 242 232 231 235 237 239 244 248 252 257
260 266 271 274 277 281 284 284 281 280 285 290 292 295 297 297 296 294 298 297 274 259 245 229 221 220 222 224 229 238 246 247 238 229 230 234 234 240 244 247 251 257
261 265 268 271 275 278 280 279 278 279 283 287 291 295 298 296 292 290 291 278 267 261 242 230 230 225 223 226 230 240 243 237 231 228 229 231 234 241 244 247 253 260
259 262 264 267 270 273 276 277 277 281 284 288 294 299 298 294 291 287 282 276 272 266 249 241 244 239 236 232 231 236 234 228 225 226 227 230 237 242 245 250 257 264
255 257 259 262 266 270 272 274 277 282 288 293 300 305 300 292 289 280 268 267 265 261 258 252 241 238 240 234 228 230 230 226 224 225 228 236 241 244 249 255 262 268
251 252 255 258 263 267 268 270 276 281 289 298 304 309 307 294 285 277 265 260 259 261 261 246 228 227 231 231 230 230 229 226 225 228 236 243 245 250 256 261 267 273
245 248 252 256 260 263 264 266 273 278 288 301 307 311 311 298 282 275 270 267 267 266 253 232 224 225 227 229 230 228 225 225 228 235 242 247 253 259 264 267 272 276
241 245 249 254 258 259 259 261 267 276 288 302 309 314 314 303 282 273 274 277 278 266 247 231 227 228 227 226 225 223 224 230 236 242 247 254 261 264 268 272 276 280
239 245 248 253 255 253 253 257 262 272 288 304 311 317 322 319 299 286 285 290 282 256 239 229 226 227 226 228 231 230 232 238 244 249 255 260 265 269 273 277 281 285
238 244 247 250 250 247 248 251 256 267 286 302 311 319 330 344 346 331 324 320 281 249 236 228 226 227 229 236 244 245 246 249 253 258 263 268 272 276 279 282 286 289
238 242 245 245 243 241 243 244 247 260 277 290 303 316 329 345 0 354 337 296 269 261 251 243 241 241 240 244 251 254 257 260 264 268 271 275 277 279 281 285 288 290
238 241 241 239 236 237 239 237 240 253 263 272 288 305 317 328 341 333 308 273 258 256 254 253 250 250 250 251 254 259 264 269 273 276 278 279 280 281 285 287 290 293
237 239 237 233 232 235 235 232 237 246 250 254 271 289 301 309 312 305 292 273 260 257 257 256 254 254 254 255 259 264 270 273 277 280 282 282 283 284 287 289 291 293
236 235 231 229 230 233 233 233 236 240 241 244 256 272 285 291 293 290 283 274 263 259 258 254 253 255 257 260 264 268 272 276 280 283 284 284 285 287 289 291 291 288
234 231 227 226 229 232 233 234 236 237 238 244 251 260 271 278 284 286 284 277 266 256 253 251 253 258 262 265 269 274 278 283 285 286 287 287 287 289 291 290 288 286
229 226 224 225 228 231 233 234 236 238 242 250 257 261 263 268 274 279 282 282 277 266 257 254 257 262 267 271 274 279 283 287 288 289 289 289 289 290 290 286 285 286
223 221 221 223 227 230 233 235 239 243 249 254 258 261 263 266 270 273 277 279 278 274 267 262 264 267 271 273 276 280 284 287 288 288 287 286 287 288 285 283 283 284
220 219 220 223 226 230 233 236 240 245 250 254 257 260 263 267 270 273 275 275 273 272 270 268 269 272 274 276 277 280 283 284 285 285 283 283 284 284 283 282 282 282
218 217 219 223 226 230 235 238 242 246 250 253 256 260 263 267 270 272 272 273 272 271 270 269 271 274 277 279 279 281 282 281 281 282 282 282 283 283 284 284 283 283
216 215 218 223 226 231 236 239 243 248 252 255 257 261 264 267 270 272 272 273 273 272 271 270 271 273 276 279 280 281 281 281 280 281 281 282 283 283 284 284 282 283
212 213 217 222 225 231 236 241 246 250 253 256 258 261 264 266 268 269 271 272 273 274 274 273 273 274 276 278 278 278 278 280 281 281 281 281 283 283 282 281 280 280